Time,TemperatureF,DewpointF,PressureIn,WindDirection,WindDirectionDegrees,WindSpeedMPH,WindSpeedGustMPH,Humidity,HourlyPrecipIn,Conditions,Clouds,dailyrainin,SolarRadiationWatts/m^2,SoftwareType,DateUTC
2013-01-08 00:00:00,47.1,46.0,30.25,SSW,213,0.0,2.0,96,0.00,,---,0.00,0.00,VWS V14.01,2013-01-08 08:00:00,
2013-01-08 00:05:00,47.1,46.0,30.25,SSW,213,0.0,2.0,96,0.00,,---,0.00,0.00,VWS V14.01,2013-01-08 08:05:00,
2013-01-08 00:10:00,47.0,45.9,30.25,SSW,213,0.0,0.0,96,0.00,,---,0.00,0.00,VWS V14.01,2013-01-08 08:10:00,
2013-01-08 00:15:00,47.0,45.9,30.24,SSW,213,0.0,0.0,96,0.00,,---,0.00,0.00,VWS V14.01,2013-01-08 08:15:00,
2013-01-08 00:20:00,46.9,45.8,30.24,SSW,213,0.0,0.0,96,0.00,,---,0.00,0.00,VWS V14.01,2013-01-08 08:20:00,
2013-01-08 00:25:00,46.9,45.8,30.24,SSW,213,0.0,0.0,96,0.00,,---,0.00,0.00,VWS V14.01,2013-01-08 08:25:00,
2013-01-08 00:30:00,46.9,45.8,30.24,SSW,213,0.0,1.0,96,0.00,,---,0.00,0.00,VWS V14.01,2013-01-08 08:30:00,
2013-01-08 00:35:00,46.9,45.8,30.24,SSW,213,0.0,1.0,96,0.00,,---,0.00,0.00,VWS V14.01,2013-01-08 08:35:00,
2013-01-08 00:40:00,46.8,45.7,30.24,SSW,213,0.0,0.0,96,0.00,,---,0.00,0.00,VWS V14.01,2013-01-08 08:40:00,
2013-01-08 00:45:00,46.8,45.7,30.23,SSW,213,0.0,0.0,96,0.00,,---,0.00,0.00,VWS V14.01,2013-01-08 08:45:00,
2013-01-08 00:50:00,46.7,45.6,30.23,SSW,213,0.0,0.0,96,0.00,,---,0.00,0.00,VWS V14.01,2013-01-08 08:50:00,
2013-01-08 00:55:00,46.6,45.5,30.23,SSW,213,0.0,0.0,96,0.00,,---,0.00,0.00,VWS V14.01,2013-01-08 08:55:00,
2013-01-08 01:00:00,46.5,45.4,30.23,SSW,213,0.0,0.0,96,0.00,,---,0.00,0.00,VWS V14.01,2013-01-08 09:00:00,
2013-01-08 01:05:00,46.4,45.3,30.23,SSW,213,0.0,0.0,96,0.00,,---,0.00,0.00,VWS V14.01,2013-01-08 09:05:00,
2013-01-08 01:10:00,46.3,45.2,30.23,SSW,213,0.0,0.0,96,0.00,,---,0.00,0.00,VWS V14.01,2013-01-08 09:10:00,
2013-01-08 01:15:00,46.2,45.1,30.23,SSW,213,0.0,0.0,96,0.00,,---,0.00,0.00,VWS V14.01,2013-01-08 09:15:00,
2013-01-08 01:20:00,46.2,45.1,30.23,SSW,213,0.0,0.0,96,0.00,,---,0.00,0.00,VWS V14.01,2013-01-08 09:20:00,
2013-01-08 01:25:00,46.1,45.0,30.23,SSW,213,0.0,0.0,96,0.00,,---,0.00,0.00,VWS V14.01,2013-01-08 09:25:00,
2013-01-08 01:30:00,46.1,45.3,30.23,SSW,213,0.0,0.0,97,0.00,,---,0.00,0.00,VWS V14.01,2013-01-08 09:30:00,
2013-01-08 01:35:00,46.0,44.9,30.24,SSW,213,0.0,0.0,96,0.00,,---,0.00,0.00,VWS V14.01,2013-01-08 09:35:00,
2013-01-08 01:40:00,46.1,45.3,30.24,SSW,213,0.0,1.0,97,0.00,,---,0.00,0.00,VWS V14.01,2013-01-08 09:40:00,
2013-01-08 01:45:00,46.1,45.3,30.23,SSW,213,1.0,2.0,97,0.00,,---,0.00,0.00,VWS V14.01,2013-01-08 09:45:00,
2013-01-08 01:50:00,46.1,45.3,30.23,SSW,213,1.0,2.0,97,0.00,,---,0.00,0.00,VWS V14.01,2013-01-08 09:50:00,
2013-01-08 01:55:00,46.4,45.6,30.24,South,171,1.0,10.0,97,0.01,,---,0.01,0.00,VWS V14.01,2013-01-08 09:55:00,
2013-01-08 02:00:00,46.7,45.9,30.24,South,189,4.0,6.0,97,0.01,,---,0.01,0.00,VWS V14.01,2013-01-08 10:00:00,
2013-01-08 02:05:00,46.9,46.1,30.24,SSE,168,2.0,6.0,97,0.01,,---,0.01,0.00,VWS V14.01,2013-01-08 10:05:00,
2013-01-08 02:10:00,47.0,46.2,30.23,South,188,0.0,4.0,97,0.01,,---,0.01,0.00,VWS V14.01,2013-01-08 10:10:00,
2013-01-08 02:15:00,47.0,46.2,30.23,South,186,3.0,4.0,97,0.01,,---,0.01,0.00,VWS V14.01,2013-01-08 10:15:00,
2013-01-08 02:20:00,47.0,46.2,30.23,SSW,192,1.0,4.0,97,0.01,,---,0.01,0.00,VWS V14.01,2013-01-08 10:20:00,
2013-01-08 02:25:00,47.0,46.2,30.23,SSW,192,1.0,4.0,97,0.01,,---,0.01,0.00,VWS V14.01,2013-01-08 10:25:00,
2013-01-08 02:30:00,47.0,46.2,30.23,South,190,1.0,5.0,97,0.01,,---,0.01,0.00,VWS V14.01,2013-01-08 10:30:00,
2013-01-08 02:35:00,46.9,46.1,30.23,South,190,3.0,5.0,97,0.01,,---,0.01,0.00,VWS V14.01,2013-01-08 10:35:00,
2013-01-08 02:40:00,46.9,46.1,30.22,South,190,1.0,3.0,97,0.01,,---,0.01,0.00,VWS V14.01,2013-01-08 10:40:00,
2013-01-08 02:45:00,46.8,46.0,30.22,South,190,2.0,4.0,97,0.02,,---,0.02,0.00,VWS V14.01,2013-01-08 10:45:00,
2013-01-08 02:50:00,46.8,46.0,30.22,South,190,2.0,4.0,97,0.02,,---,0.02,0.00,VWS V14.01,2013-01-08 10:50:00,
2013-01-08 02:55:00,46.8,46.0,30.22,South,190,2.0,4.0,97,0.02,,---,0.02,0.00,VWS V14.01,2013-01-08 10:55:00,
2013-01-08 03:00:00,46.9,46.1,30.20,SSE,165,1.0,10.0,97,0.01,,---,0.02,0.00,VWS V14.01,2013-01-08 11:00:00,
2013-01-08 03:05:00,47.0,46.2,30.20,South,171,6.0,10.0,97,0.01,,---,0.02,0.00,VWS V14.01,2013-01-08 11:05:00,
2013-01-08 03:10:00,47.1,46.3,30.20,SSE,165,5.0,6.0,97,0.01,,---,0.02,0.00,VWS V14.01,2013-01-08 11:10:00,
2013-01-08 03:15:00,47.1,46.6,30.20,South,183,4.0,7.0,98,0.02,,---,0.03,0.00,VWS V14.01,2013-01-08 11:15:00,
2013-01-08 03:20:00,47.2,46.7,30.19,SSE,163,6.0,9.0,98,0.02,,---,0.03,0.00,VWS V14.01,2013-01-08 11:20:00,
2013-01-08 03:25:00,47.2,46.7,30.19,SSE,163,2.0,9.0,98,0.02,,---,0.03,0.00,VWS V14.01,2013-01-08 11:25:00,
2013-01-08 03:30:00,47.2,46.7,30.19,SSE,157,6.0,10.0,98,0.02,,---,0.03,0.00,VWS V14.01,2013-01-08 11:30:00,
2013-01-08 03:35:00,47.3,46.8,30.19,South,182,3.0,10.0,98,0.02,,---,0.03,0.00,VWS V14.01,2013-01-08 11:35:00,
2013-01-08 03:40:00,47.3,46.8,30.19,South,172,5.0,11.0,98,0.02,,---,0.03,0.00,VWS V14.01,2013-01-08 11:40:00,
2013-01-08 03:45:00,47.4,46.9,30.19,SSW,197,3.0,11.0,98,0.02,,---,0.03,0.00,VWS V14.01,2013-01-08 11:45:00,
2013-01-08 03:50:00,47.4,46.9,30.18,SSE,154,5.0,7.0,98,0.01,,---,0.03,0.00,VWS V14.01,2013-01-08 11:50:00,
2013-01-08 03:55:00,47.4,46.9,30.18,SSE,167,4.0,9.0,98,0.01,,---,0.03,0.00,VWS V14.01,2013-01-08 11:55:00,
2013-01-08 04:00:00,47.4,46.9,30.18,SSW,196,6.0,9.0,98,0.01,,---,0.03,0.00,VWS V14.01,2013-01-08 12:00:00,
2013-01-08 04:05:00,47.4,46.9,30.18,SSE,161,4.0,9.0,98,0.01,,---,0.03,0.00,VWS V14.01,2013-01-08 12:05:00,
2013-01-08 04:10:00,47.5,47.0,30.18,South,175,4.0,9.0,98,0.01,,---,0.03,0.00,VWS V14.01,2013-01-08 12:10:00,
2013-01-08 04:15:00,47.5,47.0,30.18,South,179,3.0,9.0,98,0.01,,---,0.03,0.00,VWS V14.01,2013-01-08 12:15:00,
2013-01-08 04:20:00,47.5,47.0,30.18,South,177,4.0,6.0,98,0.00,,---,0.03,0.00,VWS V14.01,2013-01-08 12:20:00,
2013-01-08 04:25:00,47.7,47.2,30.18,South,188,2.0,11.0,98,0.00,,---,0.03,0.00,VWS V14.01,2013-01-08 12:25:00,
2013-01-08 04:30:00,47.8,47.3,30.18,SSE,163,6.0,7.0,98,0.00,,---,0.03,0.00,VWS V14.01,2013-01-08 12:30:00,
2013-01-08 04:35:00,47.9,47.4,30.17,South,184,3.0,9.0,98,0.00,,---,0.03,0.00,VWS V14.01,2013-01-08 12:35:00,
2013-01-08 04:40:00,48.0,47.2,30.17,SSW,204,5.0,13.0,97,0.00,,---,0.03,0.00,VWS V14.01,2013-01-08 12:40:00,
2013-01-08 04:45:00,48.2,47.4,30.17,South,171,10.0,13.0,97,0.00,,---,0.03,0.00,VWS V14.01,2013-01-08 12:45:00,
2013-01-08 04:50:00,48.4,47.6,30.17,South,169,3.0,8.0,97,0.00,,---,0.03,0.00,VWS V14.01,2013-01-08 12:50:00,
2013-01-08 04:55:00,48.5,47.7,30.17,South,184,2.0,11.0,97,0.00,,---,0.03,0.00,VWS V14.01,2013-01-08 12:55:00,
2013-01-08 05:00:00,48.5,47.7,30.17,South,179,1.0,5.0,97,0.00,,---,0.03,0.00,VWS V14.01,2013-01-08 13:00:00,
2013-01-08 05:05:00,48.6,47.5,30.17,South,173,2.0,7.0,96,0.00,,---,0.03,0.00,VWS V14.01,2013-01-08 13:05:00,
2013-01-08 05:10:00,48.7,47.6,30.17,South,187,5.0,13.0,96,0.00,,---,0.03,0.00,VWS V14.01,2013-01-08 13:10:00,
2013-01-08 05:15:00,48.8,47.7,30.17,South,174,1.0,13.0,96,0.00,,---,0.03,0.00,VWS V14.01,2013-01-08 13:15:00,
2013-01-08 05:20:00,48.8,47.7,30.17,South,186,12.0,14.0,96,0.00,,---,0.03,0.00,VWS V14.01,2013-01-08 13:20:00,
2013-01-08 05:25:00,49.0,47.6,30.17,SSW,194,3.0,14.0,95,0.01,,---,0.04,0.00,VWS V14.01,2013-01-08 13:25:00,
2013-01-08 05:30:00,49.0,47.6,30.17,South,178,6.0,10.0,95,0.01,,---,0.04,0.00,VWS V14.01,2013-01-08 13:30:00,
2013-01-08 05:35:00,49.0,47.6,30.17,South,171,12.0,12.0,95,0.01,,---,0.04,0.00,VWS V14.01,2013-01-08 13:35:00,
2013-01-08 05:40:00,49.1,47.7,30.17,South,188,6.0,10.0,95,0.01,,---,0.04,0.00,VWS V14.01,2013-01-08 13:40:00,
2013-01-08 05:45:00,49.1,47.7,30.17,SSE,153,5.0,11.0,95,0.01,,---,0.04,0.00,VWS V14.01,2013-01-08 13:45:00,
2013-01-08 05:50:00,49.1,47.7,30.18,SSW,209,0.0,8.0,95,0.01,,---,0.04,0.00,VWS V14.01,2013-01-08 13:50:00,
2013-01-08 05:55:00,49.1,47.7,30.18,South,176,2.0,10.0,95,0.01,,---,0.04,0.00,VWS V14.01,2013-01-08 13:55:00,
2013-01-08 06:00:00,49.1,47.7,30.17,South,177,5.0,6.0,95,0.01,,---,0.04,0.00,VWS V14.01,2013-01-08 14:00:00,
2013-01-08 06:05:00,49.1,47.7,30.17,SSE,165,3.0,13.0,95,0.01,,---,0.04,0.00,VWS V14.01,2013-01-08 14:05:00,
2013-01-08 06:10:00,49.0,47.6,30.17,SSE,161,4.0,12.0,95,0.01,,---,0.04,0.00,VWS V14.01,2013-01-08 14:10:00,
2013-01-08 06:15:00,49.0,47.6,30.17,South,178,5.0,12.0,95,0.01,,---,0.04,0.00,VWS V14.01,2013-01-08 14:15:00,
2013-01-08 06:20:00,49.0,47.6,30.17,South,173,6.0,10.0,95,0.01,,---,0.04,0.00,VWS V14.01,2013-01-08 14:20:00,
2013-01-08 06:25:00,49.0,47.6,30.17,SSE,155,2.0,13.0,95,0.01,,---,0.04,0.00,VWS V14.01,2013-01-08 14:25:00,
2013-01-08 06:30:00,48.9,47.5,30.17,SSE,160,4.0,9.0,95,0.00,,---,0.04,0.00,VWS V14.01,2013-01-08 14:30:00,
2013-01-08 06:35:00,48.9,47.8,30.17,SSW,207,2.0,16.0,96,0.00,,---,0.04,0.00,VWS V14.01,2013-01-08 14:35:00,
2013-01-08 06:40:00,48.8,47.7,30.17,South,180,4.0,11.0,96,0.00,,---,0.04,0.00,VWS V14.01,2013-01-08 14:40:00,
2013-01-08 06:45:00,48.8,47.7,30.17,SSW,200,3.0,12.0,96,0.00,,---,0.04,0.00,VWS V14.01,2013-01-08 14:45:00,
2013-01-08 06:50:00,48.8,47.7,30.17,SSW,196,3.0,11.0,96,0.00,,---,0.04,0.00,VWS V14.01,2013-01-08 14:50:00,
2013-01-08 06:55:00,48.9,47.8,30.17,South,181,5.0,11.0,96,0.00,,---,0.04,0.00,VWS V14.01,2013-01-08 14:55:00,
2013-01-08 07:00:00,48.8,47.7,30.17,SE,142,6.0,9.0,96,0.00,,---,0.04,0.00,VWS V14.01,2013-01-08 15:00:00,
2013-01-08 07:05:00,48.8,47.7,30.17,SSE,157,6.0,9.0,96,0.00,,---,0.04,0.00,VWS V14.01,2013-01-08 15:05:00,
2013-01-08 07:10:00,48.8,47.4,30.16,South,169,3.0,10.0,95,0.00,,---,0.04,0.00,VWS V14.01,2013-01-08 15:10:00,
2013-01-08 07:15:00,48.9,47.5,30.17,SSE,155,4.0,10.0,95,0.00,,---,0.04,0.00,VWS V14.01,2013-01-08 15:15:00,
2013-01-08 07:20:00,49.0,47.6,30.16,SSE,167,9.0,12.0,95,0.00,,---,0.04,0.00,VWS V14.01,2013-01-08 15:20:00,
2013-01-08 07:25:00,49.1,47.5,30.16,South,170,10.0,12.0,94,0.00,,---,0.04,0.00,VWS V14.01,2013-01-08 15:25:00,
2013-01-08 07:30:00,49.2,47.5,30.17,SSE,159,4.0,9.0,94,0.00,,---,0.04,0.00,VWS V14.01,2013-01-08 15:30:00,
2013-01-08 07:35:00,49.2,47.5,30.17,South,173,4.0,12.0,94,0.00,,---,0.04,0.00,VWS V14.01,2013-01-08 15:35:00,
2013-01-08 07:40:00,49.3,47.7,30.17,SSE,165,5.0,10.0,94,0.00,,---,0.04,0.00,VWS V14.01,2013-01-08 15:40:00,
2013-01-08 07:45:00,49.4,47.5,30.17,SE,144,4.0,13.0,93,0.00,,---,0.04,0.00,VWS V14.01,2013-01-08 15:45:00,
2013-01-08 07:50:00,49.4,47.5,30.17,South,175,3.0,8.0,93,0.00,,---,0.04,0.00,VWS V14.01,2013-01-08 15:50:00,
2013-01-08 07:55:00,49.4,47.5,30.17,South,190,5.0,10.0,93,0.00,,---,0.04,0.00,VWS V14.01,2013-01-08 15:55:00,
2013-01-08 08:00:00,49.5,47.6,30.17,SSW,207,9.0,12.0,93,0.00,,---,0.04,0.00,VWS V14.01,2013-01-08 16:00:00,
2013-01-08 08:05:00,49.5,47.6,30.17,SSW,205,6.0,12.0,93,0.00,,---,0.04,5.00,VWS V14.01,2013-01-08 16:05:00,
2013-01-08 08:10:00,49.4,47.5,30.17,South,181,3.0,10.0,93,0.00,,---,0.04,9.00,VWS V14.01,2013-01-08 16:10:00,
2013-01-08 08:15:00,49.5,47.6,30.17,SSE,167,11.0,14.0,93,0.00,,---,0.04,9.00,VWS V14.01,2013-01-08 16:15:00,
2013-01-08 08:20:00,49.6,47.7,30.17,South,184,8.0,11.0,93,0.00,,---,0.04,12.00,VWS V14.01,2013-01-08 16:20:00,
2013-01-08 08:25:00,49.6,47.7,30.17,SSW,202,6.0,13.0,93,0.00,,---,0.04,14.00,VWS V14.01,2013-01-08 16:25:00,
2013-01-08 08:30:00,49.6,47.7,30.17,SW,214,9.0,12.0,93,0.00,,---,0.04,16.00,VWS V14.01,2013-01-08 16:30:00,
2013-01-08 08:35:00,49.6,47.7,30.17,SSE,159,2.0,12.0,93,0.00,,---,0.04,21.00,VWS V14.01,2013-01-08 16:35:00,
2013-01-08 08:40:00,49.7,47.8,30.17,SSE,159,6.0,12.0,93,0.00,,---,0.04,23.00,VWS V14.01,2013-01-08 16:40:00,
2013-01-08 08:45:00,49.7,47.8,30.17,South,184,3.0,13.0,93,0.00,,---,0.04,23.00,VWS V14.01,2013-01-08 16:45:00,
2013-01-08 08:50:00,49.8,47.6,30.18,South,173,10.0,11.0,92,0.00,,---,0.04,32.00,VWS V14.01,2013-01-08 16:50:00,
2013-01-08 08:55:00,49.9,47.7,30.18,South,188,5.0,13.0,92,0.00,,---,0.04,44.00,VWS V14.01,2013-01-08 16:55:00,
2013-01-08 09:00:00,49.9,47.7,30.18,SSW,207,12.0,19.0,92,0.00,,---,0.04,46.00,VWS V14.01,2013-01-08 17:00:00,
2013-01-08 09:05:00,50.0,47.8,30.18,South,186,9.0,19.0,92,0.00,,---,0.04,32.00,VWS V14.01,2013-01-08 17:05:00,
2013-01-08 09:10:00,50.1,47.9,30.18,South,187,4.0,11.0,92,0.00,,---,0.04,21.00,VWS V14.01,2013-01-08 17:10:00,
2013-01-08 09:15:00,50.1,47.9,30.18,South,187,11.0,13.0,92,0.00,,---,0.04,25.00,VWS V14.01,2013-01-08 17:15:00,
2013-01-08 09:20:00,50.1,47.9,30.18,SSE,163,3.0,10.0,92,0.00,,---,0.04,39.00,VWS V14.01,2013-01-08 17:20:00,
2013-01-08 09:25:00,50.2,48.0,30.18,SSE,167,10.0,19.0,92,0.00,,---,0.04,56.00,VWS V14.01,2013-01-08 17:25:00,
2013-01-08 09:30:00,50.4,48.2,30.18,SSE,165,5.0,14.0,92,0.00,,---,0.04,72.00,VWS V14.01,2013-01-08 17:30:00,
2013-01-08 09:35:00,50.5,48.3,30.17,South,188,4.0,14.0,92,0.00,,---,0.04,84.00,VWS V14.01,2013-01-08 17:35:00,
2013-01-08 09:40:00,50.6,48.1,30.18,South,186,12.0,14.0,91,0.00,,---,0.04,90.00,VWS V14.01,2013-01-08 17:40:00,
2013-01-08 09:45:00,50.7,48.2,30.18,South,190,5.0,15.0,91,0.00,,---,0.04,72.00,VWS V14.01,2013-01-08 17:45:00,
2013-01-08 09:50:00,50.8,48.3,30.17,South,174,11.0,14.0,91,0.00,,---,0.04,70.00,VWS V14.01,2013-01-08 17:50:00,
2013-01-08 09:55:00,50.9,48.4,30.17,South,178,8.0,24.0,91,0.00,,---,0.04,49.00,VWS V14.01,2013-01-08 17:55:00,
2013-01-08 10:00:00,50.9,48.4,30.18,SSW,193,9.0,12.0,91,0.00,,---,0.04,51.00,VWS V14.01,2013-01-08 18:00:00,
2013-01-08 10:05:00,51.0,48.5,30.18,South,183,12.0,15.0,91,0.00,,---,0.04,53.00,VWS V14.01,2013-01-08 18:05:00,
2013-01-08 10:10:00,51.1,48.3,30.18,SSE,154,6.0,15.0,90,0.00,,---,0.04,54.00,VWS V14.01,2013-01-08 18:10:00,
2013-01-08 10:15:00,51.2,48.4,30.18,South,173,7.0,15.0,90,0.00,,---,0.04,62.00,VWS V14.01,2013-01-08 18:15:00,
2013-01-08 10:20:00,51.3,48.5,30.18,South,179,7.0,15.0,90,0.00,,---,0.04,54.00,VWS V14.01,2013-01-08 18:20:00,
2013-01-08 10:25:00,51.3,48.5,30.17,SE,146,5.0,15.0,90,0.00,,---,0.04,58.00,VWS V14.01,2013-01-08 18:25:00,
2013-01-08 10:30:00,51.5,48.7,30.17,SSW,206,6.0,15.0,90,0.00,,---,0.04,62.00,VWS V14.01,2013-01-08 18:30:00,
2013-01-08 10:35:00,51.6,48.5,30.17,SW,220,5.0,18.0,89,0.00,,---,0.04,81.00,VWS V14.01,2013-01-08 18:35:00,
2013-01-08 10:40:00,51.7,48.6,30.17,SSE,159,12.0,15.0,89,0.00,,---,0.04,97.00,VWS V14.01,2013-01-08 18:40:00,
2013-01-08 10:45:00,51.7,48.6,30.16,South,188,6.0,15.0,89,0.00,,---,0.04,116.00,VWS V14.01,2013-01-08 18:45:00,
2013-01-08 10:50:00,51.8,48.7,30.16,South,182,10.0,16.0,89,0.00,,---,0.04,90.00,VWS V14.01,2013-01-08 18:50:00,
2013-01-08 10:55:00,51.8,48.7,30.17,SSE,163,6.0,20.0,89,0.00,,---,0.04,83.00,VWS V14.01,2013-01-08 18:55:00,
2013-01-08 11:00:00,51.8,48.7,30.17,SSW,203,6.0,14.0,89,0.00,,---,0.04,79.00,VWS V14.01,2013-01-08 19:00:00,
2013-01-08 11:05:00,51.9,48.8,30.17,West,265,7.0,15.0,89,0.00,,---,0.04,63.00,VWS V14.01,2013-01-08 19:05:00,
2013-01-08 11:10:00,51.8,48.7,30.16,SSW,203,6.0,15.0,89,0.00,,---,0.04,74.00,VWS V14.01,2013-01-08 19:10:00,
2013-01-08 11:15:00,51.8,48.7,30.16,SSW,195,13.0,21.0,89,0.00,,---,0.04,88.00,VWS V14.01,2013-01-08 19:15:00,
2013-01-08 11:20:00,51.8,48.7,30.16,South,178,11.0,22.0,89,0.00,,---,0.04,65.00,VWS V14.01,2013-01-08 19:20:00,
2013-01-08 11:25:00,51.7,48.9,30.16,SSW,205,10.0,22.0,90,0.00,,---,0.04,60.00,VWS V14.01,2013-01-08 19:25:00,
2013-01-08 11:30:00,51.8,48.7,30.16,SSE,161,2.0,17.0,89,0.00,,---,0.04,84.00,VWS V14.01,2013-01-08 19:30:00,
2013-01-08 11:35:00,51.9,48.8,30.16,SW,232,10.0,25.0,89,0.00,,---,0.04,62.00,VWS V14.01,2013-01-08 19:35:00,
2013-01-08 11:40:00,51.9,48.8,30.16,SSW,203,14.0,14.0,89,0.00,,---,0.04,54.00,VWS V14.01,2013-01-08 19:40:00,
2013-01-08 11:45:00,51.9,48.5,30.15,SSW,194,10.0,20.0,88,0.00,,---,0.04,42.00,VWS V14.01,2013-01-08 19:45:00,
2013-01-08 11:50:00,52.0,48.6,30.16,South,171,12.0,19.0,88,0.00,,---,0.04,67.00,VWS V14.01,2013-01-08 19:50:00,
2013-01-08 11:55:00,52.0,48.6,30.16,SSE,161,2.0,19.0,88,0.00,,---,0.04,70.00,VWS V14.01,2013-01-08 19:55:00,
2013-01-08 12:00:00,52.1,48.7,30.15,South,174,13.0,15.0,88,0.00,,---,0.04,51.00,VWS V14.01,2013-01-08 20:00:00,
2013-01-08 12:05:00,52.1,48.7,30.15,SSW,193,12.0,18.0,88,0.00,,---,0.04,51.00,VWS V14.01,2013-01-08 20:05:00,
2013-01-08 12:10:00,52.0,48.6,30.15,SSW,204,12.0,15.0,88,0.00,,---,0.04,56.00,VWS V14.01,2013-01-08 20:10:00,
2013-01-08 12:15:00,52.0,48.6,30.15,SSW,211,10.0,19.0,88,0.00,,---,0.04,56.00,VWS V14.01,2013-01-08 20:15:00,
2013-01-08 12:20:00,52.0,48.6,30.15,South,189,10.0,14.0,88,0.00,,---,0.04,69.00,VWS V14.01,2013-01-08 20:20:00,
2013-01-08 12:25:00,52.1,48.4,30.15,South,189,4.0,18.0,87,0.00,,---,0.04,58.00,VWS V14.01,2013-01-08 20:25:00,
2013-01-08 12:30:00,52.1,48.7,30.15,SSE,165,10.0,18.0,88,0.00,,---,0.04,69.00,VWS V14.01,2013-01-08 20:30:00,
2013-01-08 12:35:00,52.0,48.6,30.15,SE,142,9.0,18.0,88,0.00,,---,0.04,72.00,VWS V14.01,2013-01-08 20:35:00,
2013-01-08 12:40:00,52.1,48.7,30.15,SSE,156,12.0,24.0,88,0.00,,---,0.04,62.00,VWS V14.01,2013-01-08 20:40:00,
2013-01-08 12:45:00,52.1,48.4,30.14,SSE,150,18.0,28.0,87,0.00,,---,0.04,56.00,VWS V14.01,2013-01-08 20:45:00,
2013-01-08 12:50:00,52.2,48.5,30.14,SSW,205,6.0,14.0,87,0.00,,---,0.04,67.00,VWS V14.01,2013-01-08 20:50:00,
2013-01-08 12:55:00,52.2,48.5,30.14,SW,223,9.0,18.0,87,0.00,,---,0.04,58.00,VWS V14.01,2013-01-08 20:55:00,
2013-01-08 13:00:00,52.2,48.5,30.14,South,186,19.0,19.0,87,0.00,,---,0.04,54.00,VWS V14.01,2013-01-08 21:00:00,
2013-01-08 13:05:00,52.3,48.5,30.14,South,190,6.0,19.0,87,0.00,,---,0.04,56.00,VWS V14.01,2013-01-08 21:05:00,
2013-01-08 13:10:00,52.4,48.7,30.13,SSW,213,9.0,15.0,87,0.00,,---,0.04,53.00,VWS V14.01,2013-01-08 21:10:00,
2013-01-08 13:15:00,52.5,48.4,30.14,SSE,159,13.0,19.0,86,0.00,,---,0.04,77.00,VWS V14.01,2013-01-08 21:15:00,
2013-01-08 13:20:00,52.6,48.5,30.13,South,184,15.0,16.0,86,0.00,,---,0.04,98.00,VWS V14.01,2013-01-08 21:20:00,
2013-01-08 13:25:00,52.7,48.6,30.13,SSW,201,10.0,21.0,86,0.00,,---,0.04,77.00,VWS V14.01,2013-01-08 21:25:00,
2013-01-08 13:30:00,52.8,48.7,30.13,SSE,165,12.0,20.0,86,0.00,,---,0.04,84.00,VWS V14.01,2013-01-08 21:30:00,
2013-01-08 13:35:00,52.9,48.8,30.13,South,180,4.0,20.0,86,0.00,,---,0.04,109.00,VWS V14.01,2013-01-08 21:35:00,
2013-01-08 13:40:00,53.0,48.9,30.12,SSE,159,10.0,11.0,86,0.00,,---,0.04,116.00,VWS V14.01,2013-01-08 21:40:00,
2013-01-08 13:45:00,53.1,49.0,30.12,South,174,7.0,19.0,86,0.00,,---,0.04,151.00,VWS V14.01,2013-01-08 21:45:00,
2013-01-08 13:50:00,53.3,49.2,30.12,SSE,155,2.0,14.0,86,0.00,,---,0.04,72.00,VWS V14.01,2013-01-08 21:50:00,
2013-01-08 13:55:00,53.2,48.8,30.12,South,179,7.0,20.0,85,0.00,,---,0.04,51.00,VWS V14.01,2013-01-08 21:55:00,
2013-01-08 14:00:00,53.1,49.0,30.12,SW,215,7.0,13.0,86,0.00,,---,0.04,47.00,VWS V14.01,2013-01-08 22:00:00,
2013-01-08 14:05:00,53.0,48.9,30.12,South,178,9.0,20.0,86,0.00,,---,0.04,33.00,VWS V14.01,2013-01-08 22:05:00,
2013-01-08 14:10:00,53.0,48.9,30.11,South,188,7.0,18.0,86,0.00,,---,0.04,39.00,VWS V14.01,2013-01-08 22:10:00,
2013-01-08 14:15:00,53.0,48.9,30.11,SW,226,18.0,23.0,86,0.00,,---,0.04,60.00,VWS V14.01,2013-01-08 22:15:00,
2013-01-08 14:20:00,52.9,48.8,30.11,South,182,15.0,15.0,86,0.00,,---,0.04,51.00,VWS V14.01,2013-01-08 22:20:00,
2013-01-08 14:25:00,53.0,48.9,30.11,SSW,195,11.0,19.0,86,0.00,,---,0.04,95.00,VWS V14.01,2013-01-08 22:25:00,
2013-01-08 14:30:00,53.1,49.0,30.11,South,190,15.0,19.0,86,0.00,,---,0.04,113.00,VWS V14.01,2013-01-08 22:30:00,
2013-01-08 14:35:00,53.3,49.2,30.10,South,175,10.0,20.0,86,0.00,,---,0.04,132.00,VWS V14.01,2013-01-08 22:35:00,
2013-01-08 14:40:00,53.5,49.4,30.10,SSE,153,10.0,18.0,86,0.00,,---,0.04,137.00,VWS V14.01,2013-01-08 22:40:00,
2013-01-08 14:45:00,53.6,49.2,30.10,South,175,5.0,22.0,85,0.00,,---,0.04,179.00,VWS V14.01,2013-01-08 22:45:00,
2013-01-08 14:50:00,53.7,49.3,30.10,SSW,207,12.0,23.0,85,0.00,,---,0.04,132.00,VWS V14.01,2013-01-08 22:50:00,
2013-01-08 14:55:00,53.6,49.2,30.10,South,175,11.0,23.0,85,0.00,,---,0.04,109.00,VWS V14.01,2013-01-08 22:55:00,
2013-01-08 15:00:00,53.6,49.5,30.10,South,185,16.0,21.0,86,0.00,,---,0.04,125.00,VWS V14.01,2013-01-08 23:00:00,
2013-01-08 15:05:00,53.8,49.7,30.09,SW,234,13.0,26.0,86,0.00,,---,0.04,223.00,VWS V14.01,2013-01-08 23:05:00,
2013-01-08 15:10:00,54.1,50.0,30.09,South,191,10.0,18.0,86,0.00,,---,0.04,216.00,VWS V14.01,2013-01-08 23:10:00,
2013-01-08 15:15:00,54.0,49.9,30.09,SSW,194,22.0,24.0,86,0.00,,---,0.04,202.00,VWS V14.01,2013-01-08 23:15:00,
2013-01-08 15:20:00,54.0,49.9,30.09,SSW,200,11.0,20.0,86,0.00,,---,0.04,176.00,VWS V14.01,2013-01-08 23:20:00,
2013-01-08 15:25:00,53.9,49.8,30.09,SW,217,15.0,29.0,86,0.00,,---,0.04,49.00,VWS V14.01,2013-01-08 23:25:00,
2013-01-08 15:30:00,53.6,49.8,30.09,South,174,11.0,19.0,87,0.00,,---,0.04,37.00,VWS V14.01,2013-01-08 23:30:00,
2013-01-08 15:35:00,53.4,49.6,30.09,South,175,15.0,22.0,87,0.00,,---,0.04,54.00,VWS V14.01,2013-01-08 23:35:00,
2013-01-08 15:40:00,53.4,49.6,30.09,SSE,153,13.0,21.0,87,0.00,,---,0.04,88.00,VWS V14.01,2013-01-08 23:40:00,
2013-01-08 15:45:00,53.6,49.8,30.09,South,172,11.0,24.0,87,0.00,,---,0.04,107.00,VWS V14.01,2013-01-08 23:45:00,
2013-01-08 15:50:00,53.8,50.0,30.09,South,183,12.0,20.0,87,0.00,,---,0.04,88.00,VWS V14.01,2013-01-08 23:50:00,
2013-01-08 15:54:00,53.8,50.0,30.09,South,173,15.0,26.0,87,0.00,,---,0.04,72.00,VWS V14.01,2013-01-08 23:54:00,
2013-01-08 15:59:00,53.7,49.9,30.08,SSE,165,14.0,25.0,87,0.00,,---,0.04,46.00,VWS V14.01,2013-01-08 23:59:00,
2013-01-08 16:00:00,53.7,49.9,30.08,South,169,17.0,26.0,87,0.00,,---,0.04,56.00,VWS V14.01,2013-01-09 00:00:00,
2013-01-08 16:04:00,53.6,49.8,30.09,SW,215,10.0,25.0,87,0.00,,---,0.04,30.00,VWS V14.01,2013-01-09 00:04:00,
2013-01-08 16:09:00,53.6,49.8,30.08,SSW,194,5.0,17.0,87,0.00,,---,0.04,33.00,VWS V14.01,2013-01-09 00:09:00,
2013-01-08 16:10:00,53.6,49.8,30.09,South,179,14.0,25.0,87,0.00,,---,0.04,44.00,VWS V14.01,2013-01-09 00:10:00,
2013-01-08 16:14:00,53.5,49.7,30.08,SSE,163,6.0,20.0,87,0.00,,---,0.04,23.00,VWS V14.01,2013-01-09 00:14:00,
2013-01-08 16:19:00,53.4,49.9,30.08,SSW,209,13.0,22.0,88,0.00,,---,0.04,18.00,VWS V14.01,2013-01-09 00:19:00,
2013-01-08 16:20:00,53.5,50.0,30.08,South,184,14.0,20.0,88,0.00,,---,0.04,18.00,VWS V14.01,2013-01-09 00:20:00,
2013-01-08 16:24:00,53.3,49.8,30.08,South,172,7.0,25.0,88,0.00,,---,0.04,16.00,VWS V14.01,2013-01-09 00:24:00,
2013-01-08 16:29:00,53.2,49.7,30.08,South,176,8.0,20.0,88,0.00,,---,0.04,11.00,VWS V14.01,2013-01-09 00:29:00,
2013-01-08 16:30:00,53.2,49.7,30.08,SSE,157,9.0,25.0,88,0.00,,---,0.04,11.00,VWS V14.01,2013-01-09 00:30:00,
2013-01-08 16:34:00,53.1,49.7,30.08,SSE,155,5.0,20.0,88,0.00,,---,0.04,7.00,VWS V14.01,2013-01-09 00:34:00,
2013-01-08 16:39:00,53.0,49.8,30.08,SSW,196,11.0,20.0,89,0.00,,---,0.04,5.00,VWS V14.01,2013-01-09 00:39:00,
2013-01-08 16:40:00,53.1,50.0,30.08,SSW,197,8.0,20.0,89,0.00,,---,0.04,7.00,VWS V14.01,2013-01-09 00:40:00,
2013-01-08 16:44:00,53.0,49.8,30.07,SW,214,14.0,20.0,89,0.00,,---,0.04,0.00,VWS V14.01,2013-01-09 00:44:00,
2013-01-08 16:49:00,52.9,49.8,30.07,South,175,11.0,17.0,89,0.00,,---,0.04,0.00,VWS V14.01,2013-01-09 00:49:00,
2013-01-08 16:50:00,52.9,49.8,30.07,SSW,192,10.0,23.0,89,0.00,,---,0.04,0.00,VWS V14.01,2013-01-09 00:50:00,
2013-01-08 16:54:00,52.8,49.7,30.07,SSW,205,10.0,17.0,89,0.00,,---,0.04,0.00,VWS V14.01,2013-01-09 00:54:00,
2013-01-08 16:59:00,52.7,49.8,30.07,SSW,198,6.0,14.0,90,0.00,,---,0.04,0.00,VWS V14.01,2013-01-09 00:59:00,
2013-01-08 17:00:00,52.7,49.6,30.07,SSW,197,5.0,17.0,89,0.00,,---,0.04,0.00,VWS V14.01,2013-01-09 01:00:00,
2013-01-08 17:04:00,52.6,49.8,30.07,SSW,198,10.0,14.0,90,0.00,,---,0.04,0.00,VWS V14.01,2013-01-09 01:04:00,
2013-01-08 17:09:00,52.5,49.7,30.07,SSW,200,12.0,15.0,90,0.00,,---,0.04,0.00,VWS V14.01,2013-01-09 01:09:00,
2013-01-08 17:10:00,52.5,49.7,30.07,South,175,3.0,14.0,90,0.00,,---,0.04,0.00,VWS V14.01,2013-01-09 01:10:00,
2013-01-08 17:14:00,52.5,49.7,30.07,SSE,163,6.0,15.0,90,0.00,,---,0.04,0.00,VWS V14.01,2013-01-09 01:14:00,
2013-01-08 17:19:00,52.4,49.6,30.07,South,188,11.0,12.0,90,0.00,,---,0.04,0.00,VWS V14.01,2013-01-09 01:19:00,
2013-01-08 17:20:00,52.4,49.6,30.07,SSE,153,1.0,15.0,90,0.00,,---,0.04,0.00,VWS V14.01,2013-01-09 01:20:00,
2013-01-08 17:24:00,52.4,49.6,30.07,SW,222,6.0,13.0,90,0.00,,---,0.04,0.00,VWS V14.01,2013-01-09 01:24:00,
2013-01-08 17:29:00,52.3,49.5,30.06,South,169,10.0,13.0,90,0.00,,---,0.04,0.00,VWS V14.01,2013-01-09 01:29:00,
2013-01-08 17:30:00,52.4,49.6,30.06,South,191,2.0,13.0,90,0.00,,---,0.04,0.00,VWS V14.01,2013-01-09 01:30:00,
2013-01-08 17:34:00,52.3,49.5,30.06,South,172,6.0,13.0,90,0.00,,---,0.04,0.00,VWS V14.01,2013-01-09 01:34:00,
2013-01-08 17:39:00,52.3,49.5,30.06,SSW,213,8.0,15.0,90,0.00,,---,0.04,0.00,VWS V14.01,2013-01-09 01:39:00,
2013-01-08 17:40:00,52.2,49.4,30.06,South,191,10.0,13.0,90,0.00,,---,0.04,0.00,VWS V14.01,2013-01-09 01:40:00,
2013-01-08 17:44:00,52.3,49.5,30.06,SSW,196,12.0,16.0,90,0.00,,---,0.04,0.00,VWS V14.01,2013-01-09 01:44:00,
2013-01-08 17:49:00,52.3,49.5,30.05,SW,217,7.0,15.0,90,0.00,,---,0.04,0.00,VWS V14.01,2013-01-09 01:49:00,
2013-01-08 17:50:00,52.3,49.5,30.06,South,179,5.0,16.0,90,0.00,,---,0.04,0.00,VWS V14.01,2013-01-09 01:50:00,
2013-01-08 17:54:00,52.2,49.4,30.05,SSW,211,4.0,16.0,90,0.00,,---,0.04,0.00,VWS V14.01,2013-01-09 01:54:00,
2013-01-08 17:59:00,52.1,49.3,30.05,SSE,164,3.0,14.0,90,0.00,,---,0.04,0.00,VWS V14.01,2013-01-09 01:59:00,
2013-01-08 18:00:00,52.1,49.3,30.05,SSW,200,4.0,16.0,90,0.00,,---,0.04,0.00,VWS V14.01,2013-01-09 02:00:00,
2013-01-08 18:04:00,52.0,49.2,30.04,SSE,159,7.0,14.0,90,0.00,,---,0.04,0.00,VWS V14.01,2013-01-09 02:04:00,
2013-01-08 18:09:00,51.9,49.1,30.04,South,173,3.0,11.0,90,0.00,,---,0.04,0.00,VWS V14.01,2013-01-09 02:09:00,
2013-01-08 18:10:00,52.0,49.2,30.04,South,170,3.0,14.0,90,0.00,,---,0.04,0.00,VWS V14.01,2013-01-09 02:10:00,
2013-01-08 18:14:00,51.8,49.0,30.04,SSW,206,11.0,15.0,90,0.00,,---,0.04,0.00,VWS V14.01,2013-01-09 02:14:00,
2013-01-08 18:19:00,51.8,49.0,30.04,South,184,6.0,10.0,90,0.00,,---,0.04,0.00,VWS V14.01,2013-01-09 02:19:00,
2013-01-08 18:20:00,51.9,49.1,30.04,SSW,196,7.0,15.0,90,0.00,,---,0.04,0.00,VWS V14.01,2013-01-09 02:20:00,
2013-01-08 18:24:00,51.8,49.0,30.04,South,188,5.0,10.0,90,0.00,,---,0.04,0.00,VWS V14.01,2013-01-09 02:24:00,
2013-01-08 18:29:00,51.6,49.1,30.04,SSW,192,3.0,9.0,91,0.00,,---,0.04,0.00,VWS V14.01,2013-01-09 02:29:00,
2013-01-08 18:30:00,51.7,48.9,30.04,SSW,207,3.0,10.0,90,0.00,,---,0.04,0.00,VWS V14.01,2013-01-09 02:30:00,
2013-01-08 18:34:00,51.5,49.0,30.04,SSE,164,0.0,9.0,91,0.00,,---,0.04,0.00,VWS V14.01,2013-01-09 02:34:00,
2013-01-08 18:39:00,51.5,49.0,30.03,South,188,2.0,5.0,91,0.00,,---,0.04,0.00,VWS V14.01,2013-01-09 02:39:00,
2013-01-08 18:40:00,51.5,49.0,30.04,South,172,1.0,9.0,91,0.00,,---,0.04,0.00,VWS V14.01,2013-01-09 02:40:00,
2013-01-08 18:44:00,51.5,49.0,30.03,South,176,2.0,7.0,91,0.00,,---,0.04,0.00,VWS V14.01,2013-01-09 02:44:00,
2013-01-08 18:49:00,51.5,49.0,30.03,SSW,197,6.0,9.0,91,0.00,,---,0.04,0.00,VWS V14.01,2013-01-09 02:49:00,
2013-01-08 18:50:00,51.5,49.0,30.03,South,177,3.0,7.0,91,0.00,,---,0.04,0.00,VWS V14.01,2013-01-09 02:50:00,
2013-01-08 18:54:00,51.6,49.1,30.03,South,189,11.0,11.0,91,0.00,,---,0.04,0.00,VWS V14.01,2013-01-09 02:54:00,
2013-01-08 18:59:00,51.6,48.8,30.03,SSW,197,6.0,13.0,90,0.00,,---,0.04,0.00,VWS V14.01,2013-01-09 02:59:00,
2013-01-08 19:00:00,51.6,48.8,30.03,South,191,3.0,11.0,90,0.00,,---,0.04,0.00,VWS V14.01,2013-01-09 03:00:00,
2013-01-08 19:04:00,51.5,48.7,30.03,South,174,4.0,13.0,90,0.00,,---,0.04,0.00,VWS V14.01,2013-01-09 03:04:00,
2013-01-08 19:09:00,51.5,48.7,30.02,SSW,209,5.0,6.0,90,0.00,,---,0.04,0.00,VWS V14.01,2013-01-09 03:09:00,
2013-01-08 19:10:00,51.5,48.7,30.03,SSE,163,3.0,13.0,90,0.00,,---,0.04,0.00,VWS V14.01,2013-01-09 03:10:00,
2013-01-08 19:14:00,51.4,48.6,30.02,South,191,1.0,9.0,90,0.00,,---,0.04,0.00,VWS V14.01,2013-01-09 03:14:00,
2013-01-08 19:19:00,51.4,48.6,30.02,SSW,193,6.0,7.0,90,0.00,,---,0.04,0.00,VWS V14.01,2013-01-09 03:19:00,
2013-01-08 19:20:00,51.4,48.6,30.02,South,174,2.0,11.0,90,0.00,,---,0.04,0.00,VWS V14.01,2013-01-09 03:20:00,
2013-01-08 19:24:00,51.4,48.6,30.03,SSW,198,3.0,7.0,90,0.00,,---,0.04,0.00,VWS V14.01,2013-01-09 03:24:00,
2013-01-08 19:29:00,51.3,48.5,30.03,SSE,162,4.0,8.0,90,0.00,,---,0.04,0.00,VWS V14.01,2013-01-09 03:29:00,
2013-01-08 19:30:00,51.4,48.6,30.03,SW,219,6.0,7.0,90,0.00,,---,0.04,0.00,VWS V14.01,2013-01-09 03:30:00,
2013-01-08 19:34:00,51.3,48.5,30.03,South,181,2.0,8.0,90,0.00,,---,0.04,0.00,VWS V14.01,2013-01-09 03:34:00,
2013-01-08 19:39:00,51.2,48.4,30.03,South,175,2.0,8.0,90,0.00,,---,0.04,0.00,VWS V14.01,2013-01-09 03:39:00,
2013-01-08 19:40:00,51.3,48.5,30.03,SSE,155,7.0,8.0,90,0.00,,---,0.04,0.00,VWS V14.01,2013-01-09 03:40:00,
2013-01-08 19:44:00,51.1,48.3,30.03,South,188,7.0,8.0,90,0.00,,---,0.04,0.00,VWS V14.01,2013-01-09 03:44:00,
2013-01-08 19:49:00,51.1,48.6,30.02,SSW,203,8.0,12.0,91,0.00,,---,0.04,0.00,VWS V14.01,2013-01-09 03:49:00,
2013-01-08 19:50:00,51.1,48.6,30.02,South,178,4.0,11.0,91,0.00,,---,0.04,0.00,VWS V14.01,2013-01-09 03:50:00,
2013-01-08 19:54:00,51.1,48.6,30.02,SSW,203,5.0,12.0,91,0.00,,---,0.04,0.00,VWS V14.01,2013-01-09 03:54:00,
2013-01-08 19:59:00,51.0,48.5,30.01,South,190,5.0,11.0,91,0.00,,---,0.04,0.00,VWS V14.01,2013-01-09 03:59:00,
2013-01-08 20:00:00,51.1,48.6,30.01,South,178,5.0,12.0,91,0.00,,---,0.04,0.00,VWS V14.01,2013-01-09 04:00:00,
2013-01-08 20:04:00,50.9,48.4,30.01,SSE,168,3.0,11.0,91,0.00,,---,0.04,0.00,VWS V14.01,2013-01-09 04:04:00,
2013-01-08 20:09:00,50.8,48.3,30.01,South,174,2.0,5.0,91,0.00,,---,0.04,0.00,VWS V14.01,2013-01-09 04:09:00,
2013-01-08 20:10:00,50.9,48.4,30.01,South,179,0.0,11.0,91,0.00,,---,0.04,0.00,VWS V14.01,2013-01-09 04:10:00,
2013-01-08 20:14:00,50.7,48.2,30.01,South,172,5.0,7.0,91,0.00,,---,0.04,0.00,VWS V14.01,2013-01-09 04:14:00,
2013-01-08 20:19:00,50.6,48.1,30.01,SW,214,2.0,6.0,91,0.00,,---,0.04,0.00,VWS V14.01,2013-01-09 04:19:00,
2013-01-08 20:20:00,50.6,48.1,30.01,SSW,205,5.0,7.0,91,0.00,,---,0.04,0.00,VWS V14.01,2013-01-09 04:20:00,
2013-01-08 20:24:00,50.4,47.9,30.01,South,177,4.0,6.0,91,0.00,,---,0.04,0.00,VWS V14.01,2013-01-09 04:24:00,
2013-01-08 20:29:00,50.2,47.7,30.01,South,191,4.0,5.0,91,0.00,,---,0.04,0.00,VWS V14.01,2013-01-09 04:29:00,
2013-01-08 20:30:00,50.3,48.9,30.01,SSW,209,0.0,6.0,95,0.00,,---,0.04,0.00,VWS V14.01,2013-01-09 04:30:00,
2013-01-08 20:34:00,50.1,47.9,30.01,SSW,199,3.0,5.0,92,0.00,,---,0.04,0.00,VWS V14.01,2013-01-09 04:34:00,
2013-01-08 20:39:00,50.1,47.9,30.01,SSW,211,1.0,3.0,92,0.00,,---,0.04,0.00,VWS V14.01,2013-01-09 04:39:00,
2013-01-08 20:40:00,50.1,47.9,30.01,SSW,211,1.0,5.0,92,0.00,,---,0.04,0.00,VWS V14.01,2013-01-09 04:40:00,
2013-01-08 20:44:00,50.0,47.8,30.01,SSW,213,0.0,4.0,92,0.00,,---,0.04,0.00,VWS V14.01,2013-01-09 04:44:00,
2013-01-08 20:49:00,50.0,47.8,30.01,SW,214,0.0,3.0,92,0.00,,---,0.04,0.00,VWS V14.01,2013-01-09 04:49:00,
2013-01-08 20:50:00,50.0,47.8,30.01,SSW,213,0.0,4.0,92,0.00,,---,0.04,0.00,VWS V14.01,2013-01-09 04:50:00,
2013-01-08 20:54:00,50.0,47.8,30.01,SSW,205,4.0,5.0,92,0.00,,---,0.04,0.00,VWS V14.01,2013-01-09 04:54:00,
2013-01-08 20:59:00,50.0,47.8,30.02,SW,220,1.0,5.0,92,0.00,,---,0.04,0.00,VWS V14.01,2013-01-09 04:59:00,
2013-01-08 21:00:00,50.0,47.8,30.01,SW,221,1.0,5.0,92,0.00,,---,0.04,0.00,VWS V14.01,2013-01-09 05:00:00,
2013-01-08 21:02:00,50.0,47.8,30.01,South,182,2.0,5.0,92,0.00,,---,0.04,0.00,VWS V14.01,2013-01-09 05:02:00,
2013-01-08 21:07:00,50.0,47.8,30.01,SSW,204,1.0,6.0,92,0.00,,---,0.04,0.00,VWS V14.01,2013-01-09 05:07:00,
2013-01-08 21:10:00,50.0,47.8,30.01,SSW,203,5.0,6.0,92,0.00,,---,0.04,0.00,VWS V14.01,2013-01-09 05:10:00,
2013-01-08 21:12:00,50.0,47.8,30.01,South,178,5.0,5.0,92,0.00,,---,0.04,0.00,VWS V14.01,2013-01-09 05:12:00,
2013-01-08 21:17:00,50.1,47.9,30.01,South,191,0.0,6.0,92,0.00,,---,0.04,0.00,VWS V14.01,2013-01-09 05:17:00,
2013-01-08 21:20:00,50.1,47.9,30.01,South,191,2.0,6.0,92,0.00,,---,0.04,0.00,VWS V14.01,2013-01-09 05:20:00,
2013-01-08 21:22:00,50.1,47.9,30.01,South,191,1.0,3.0,92,0.00,,---,0.04,0.00,VWS V14.01,2013-01-09 05:22:00,
2013-01-08 21:27:00,50.0,47.8,30.01,SSE,150,1.0,4.0,92,0.00,,---,0.04,0.00,VWS V14.01,2013-01-09 05:27:00,
2013-01-08 21:30:00,50.0,47.8,30.01,SSE,150,0.0,4.0,92,0.00,,---,0.04,0.00,VWS V14.01,2013-01-09 05:30:00,
2013-01-08 21:32:00,50.0,47.8,30.00,South,186,2.0,6.0,92,0.00,,---,0.04,0.00,VWS V14.01,2013-01-09 05:32:00,
2013-01-08 21:37:00,50.0,47.8,30.00,SSW,200,0.0,6.0,92,0.00,,---,0.04,0.00,VWS V14.01,2013-01-09 05:37:00,
2013-01-08 21:40:00,50.0,47.8,30.00,SSW,200,0.0,6.0,92,0.00,,---,0.04,0.00,VWS V14.01,2013-01-09 05:40:00,
2013-01-08 21:42:00,49.9,47.7,30.01,SSW,200,0.0,3.0,92,0.00,,---,0.04,0.00,VWS V14.01,2013-01-09 05:42:00,
2013-01-08 21:47:00,49.8,47.6,30.00,SSW,200,1.0,3.0,92,0.00,,---,0.04,0.00,VWS V14.01,2013-01-09 05:47:00,
2013-01-08 21:50:00,49.8,47.6,30.00,SSW,200,2.0,3.0,92,0.00,,---,0.04,0.00,VWS V14.01,2013-01-09 05:50:00,
2013-01-08 21:52:00,49.8,47.6,30.00,SW,234,2.0,4.0,92,0.00,,---,0.04,0.00,VWS V14.01,2013-01-09 05:52:00,
2013-01-08 21:57:00,49.7,47.5,30.00,WSW,241,3.0,4.0,92,0.00,,---,0.04,0.00,VWS V14.01,2013-01-09 05:57:00,
2013-01-08 22:00:00,49.7,47.5,30.00,SW,233,2.0,4.0,92,0.00,,---,0.04,0.00,VWS V14.01,2013-01-09 06:00:00,
2013-01-08 22:02:00,49.7,47.5,30.00,WSW,252,1.0,5.0,92,0.00,,---,0.04,0.00,VWS V14.01,2013-01-09 06:02:00,
2013-01-08 22:07:00,49.7,47.5,30.00,West,273,0.0,5.0,92,0.00,,---,0.04,0.00,VWS V14.01,2013-01-09 06:07:00,
2013-01-08 22:10:00,49.7,47.5,30.00,WSW,257,1.0,5.0,92,0.00,,---,0.04,0.00,VWS V14.01,2013-01-09 06:10:00,
2013-01-08 22:12:00,49.6,47.4,30.00,WSW,257,2.0,4.0,92,0.00,,---,0.04,0.00,VWS V14.01,2013-01-09 06:12:00,
2013-01-08 22:17:00,49.5,47.3,30.00,WSW,239,0.0,4.0,92,0.00,,---,0.04,0.00,VWS V14.01,2013-01-09 06:17:00,
2013-01-08 22:20:00,49.5,47.3,30.00,WSW,239,0.0,4.0,92,0.00,,---,0.04,0.00,VWS V14.01,2013-01-09 06:20:00,
2013-01-08 22:22:00,49.4,47.2,29.99,WSW,258,0.0,2.0,92,0.00,,---,0.04,0.00,VWS V14.01,2013-01-09 06:22:00,
2013-01-08 22:27:00,49.3,47.1,29.98,SSW,213,0.0,4.0,92,0.00,,---,0.04,0.00,VWS V14.01,2013-01-09 06:27:00,
2013-01-08 22:30:00,49.3,47.1,29.98,SSW,213,0.0,4.0,92,0.00,,---,0.04,0.00,VWS V14.01,2013-01-09 06:30:00,
2013-01-08 22:32:00,49.2,47.0,29.99,SSW,213,0.0,2.0,92,0.00,,---,0.04,0.00,VWS V14.01,2013-01-09 06:32:00,
2013-01-08 22:37:00,49.0,47.1,29.99,SSW,213,0.0,3.0,93,0.00,,---,0.04,0.00,VWS V14.01,2013-01-09 06:37:00,
2013-01-08 22:40:00,49.0,47.1,29.99,SSW,213,0.0,3.0,93,0.00,,---,0.04,0.00,VWS V14.01,2013-01-09 06:40:00,
2013-01-08 22:42:00,48.9,47.0,29.99,SSW,213,0.0,0.0,93,0.00,,---,0.04,0.00,VWS V14.01,2013-01-09 06:42:00,
2013-01-08 22:47:00,48.8,46.9,29.99,SSW,213,0.0,2.0,93,0.00,,---,0.04,0.00,VWS V14.01,2013-01-09 06:47:00,
2013-01-08 22:50:00,48.8,46.9,29.99,SSW,213,0.0,2.0,93,0.00,,---,0.04,0.00,VWS V14.01,2013-01-09 06:50:00,
2013-01-08 22:52:00,48.8,46.9,29.98,South,175,0.0,4.0,93,0.00,,---,0.04,0.00,VWS V14.01,2013-01-09 06:52:00,
2013-01-08 22:56:00,49.0,47.3,29.98,South,182,3.0,6.0,94,0.00,,---,0.04,0.00,VWS V14.01,2013-01-09 06:56:00,
2013-01-08 23:00:00,49.0,47.3,29.98,SSE,166,2.0,6.0,94,0.00,,---,0.04,0.00,VWS V14.01,2013-01-09 07:00:00,
2013-01-08 23:01:00,49.2,47.5,29.98,SSW,208,4.0,6.0,94,0.00,,---,0.04,0.00,VWS V14.01,2013-01-09 07:01:00,
2013-01-08 23:06:00,49.3,47.4,29.97,SSE,164,2.0,6.0,93,0.00,,---,0.04,0.00,VWS V14.01,2013-01-09 07:06:00,
2013-01-08 23:10:00,49.3,47.4,29.97,SSW,207,3.0,6.0,93,0.00,,---,0.04,0.00,VWS V14.01,2013-01-09 07:10:00,
2013-01-08 23:11:00,49.3,47.4,29.97,South,187,5.0,7.0,93,0.00,,---,0.04,0.00,VWS V14.01,2013-01-09 07:11:00,
2013-01-08 23:16:00,49.4,47.5,29.98,SSW,194,2.0,7.0,93,0.00,,---,0.04,0.00,VWS V14.01,2013-01-09 07:16:00,
2013-01-08 23:20:00,49.3,47.4,29.98,SSW,194,1.0,7.0,93,0.00,,---,0.04,0.00,VWS V14.01,2013-01-09 07:20:00,
2013-01-08 23:21:00,49.2,47.3,29.98,South,184,3.0,5.0,93,0.00,,---,0.04,0.00,VWS V14.01,2013-01-09 07:21:00,
2013-01-08 23:26:00,49.1,47.2,29.97,SSE,155,6.0,7.0,93,0.00,,---,0.04,0.00,VWS V14.01,2013-01-09 07:26:00,
2013-01-08 23:30:00,49.2,47.3,29.97,SSE,157,1.0,7.0,93,0.00,,---,0.04,0.00,VWS V14.01,2013-01-09 07:30:00,
2013-01-08 23:31:00,49.1,47.2,29.97,South,171,5.0,6.0,93,0.00,,---,0.04,0.00,VWS V14.01,2013-01-09 07:31:00,
2013-01-08 23:36:00,49.0,47.1,29.97,South,184,1.0,6.0,93,0.00,,---,0.04,0.00,VWS V14.01,2013-01-09 07:36:00,
2013-01-08 23:40:00,49.0,47.1,29.97,South,185,2.0,6.0,93,0.00,,---,0.04,0.00,VWS V14.01,2013-01-09 07:40:00,
2013-01-08 23:41:00,48.9,47.0,29.97,South,190,0.0,7.0,93,0.00,,---,0.04,0.00,VWS V14.01,2013-01-09 07:41:00,
2013-01-08 23:48:00,48.9,47.0,29.95,SSE,159,0.0,0.0,93,0.00,,---,0.04,0.00,VWS V14.01,2013-01-09 07:48:00,
2013-01-08 23:50:00,48.9,47.0,29.95,SSE,159,0.0,7.0,93,0.00,,---,0.04,0.00,VWS V14.01,2013-01-09 07:50:00,
2013-01-08 23:53:00,48.8,46.9,29.95,SSW,199,0.0,4.0,93,0.00,,---,0.04,0.00,VWS V14.01,2013-01-09 07:53:00,
2013-01-08 23:58:00,48.8,46.9,29.96,SSW,211,0.0,3.0,93,0.00,,---,0.00,0.00,VWS V14.01,2013-01-09 07:58:00,